Weather History for KSYN - September, 2013

Change the Weather History Date:

Monday, September 9, 2013

  Actual Average (KLVN) Record (KLVN)
Temperature  
Mean Temperature 80 °F -  
Max Temperature 93 °F 74 °F 91 °F (2013)
Min Temperature 68 °F 53 °F 33 °F (2001)
Cooling Degree Days 16    
Growing Degree Days 30 (Base 50)    
Moisture  
Dew Point 67 °F    
Average Humidity 68    
Maximum Humidity 88    
Minimum Humidity 42    
Precipitation  
Precipitation 0.00 in - - ()
Sea Level Pressure  
Sea Level Pressure 29.75 in    
Wind  
Wind Speed 7 mph (South)    
Max Wind Speed 13 mph    
Max Gust Speed 23 mph    
Visibility 8 miles    
Events Thunderstorm    
Averages and records for this station are not official NWS values.
T = Trace of Precipitation, MM = Missing Value Source: NWS Daily Summary

Daily Weather History Graph

Daily Weather History Graph

Search for Another Location

Airport or City:

Trip Planner

Search our weather history database for the weather conditions in past years. The results will help you decide how hot, cold, wet, or windy it might be!

Date:

Astronomy

Sep. 09, 2013 Rise Set
Actual Time 6:44 AM CDT 7:33 PM CDT
Civil Twilight 6:14 AM CDT 8:02 PM CDT
Nautical Twilight 5:39 AM CDT 8:37 PM CDT
Astronomical Twilight 5:03 AM CDT 9:14 PM CDT
Moon 11:18 AM CDT (9/9) 9:37 PM CDT (9/9)
Length of Visible Light 13h 47m
Length of Day
12h 49m
Waxing Crescent, 19% of the Moon is Illuminated
Sep 9
Waxing Crescent
Sep 12
First Quarter
Sep 19
Full
Sep 26
Last Quarter
Oct 4
New

Hourly Weather History & Observations

Time (CDT) Temp. Heat Index Dew Point Humidity Pressure Visibility Wind Dir Wind Speed Gust Speed Precip Events Conditions
12:12 AM 70.0 °F - 63.5 °F 80% 29.90 in 10.0 mi SE 5.8 mph - N/A   Overcast
12:32 AM 70.0 °F - 63.5 °F 80% 29.89 in 10.0 mi ESE 3.5 mph - N/A   Overcast
12:52 AM 70.0 °F - 63.5 °F 80% 29.88 in 10.0 mi SE 5.8 mph - N/A   Overcast
1:12 AM 70.0 °F - 63.5 °F 80% 29.88 in 10.0 mi SE 4.6 mph - N/A   Overcast
1:31 AM 69.8 °F - 63.5 °F 80% 29.88 in 10.0 mi ESE 4.6 mph - N/A   Overcast
1:52 AM 69.8 °F - 63.5 °F 80% 29.87 in 10.0 mi SE 4.6 mph - N/A   Overcast
2:12 AM 69.3 °F - 63.5 °F 82% 29.86 in 10.0 mi SE 4.6 mph - N/A   Mostly Cloudy
2:32 AM 69.3 °F - 63.7 °F 82% 29.86 in 10.0 mi SE 3.5 mph - N/A   Overcast
2:52 AM 69.3 °F - 63.9 °F 83% 29.85 in 10.0 mi Calm Calm - N/A   Overcast
3:12 AM 69.1 °F - 63.9 °F 83% 29.83 in 10.0 mi SE 3.5 mph - N/A   Overcast
3:32 AM 68.9 °F - 63.9 °F 84% 29.84 in 10.0 mi Calm Calm - N/A   Overcast
3:52 AM 69.3 °F - 64.4 °F 84% 29.83 in 10.0 mi SE 4.6 mph - N/A   Overcast
4:12 AM 69.4 °F - 64.8 °F 85% 29.82 in 7.0 mi SE 6.9 mph - N/A   Overcast
4:32 AM 70.0 °F - 65.3 °F 85% 29.81 in 7.0 mi SE 4.6 mph - N/A   Overcast
4:52 AM 70.2 °F - 65.5 °F 85% 29.82 in 7.0 mi SE 3.5 mph - N/A   Overcast
5:12 AM 70.0 °F - 65.7 °F 86% 29.81 in 7.0 mi ESE 4.6 mph - N/A   Overcast
5:32 AM 69.8 °F - 65.7 °F 87% 29.80 in 5.0 mi SSE 4.6 mph - N/A   Overcast
5:52 AM 70.0 °F - 65.8 °F 87% 29.81 in 5.0 mi SSE 6.9 mph - N/A   Overcast
6:12 AM 70.3 °F - 66.2 °F 87% 29.81 in 5.0 mi SSE 6.9 mph - N/A   Overcast
6:32 AM 70.7 °F - 66.4 °F 86% 29.82 in 5.0 mi Calm Calm - N/A   Haze
6:52 AM 70.7 °F - 66.6 °F 87% 29.82 in 4.0 mi SSW 3.5 mph - N/A   Overcast
7:12 AM 70.7 °F - 66.6 °F 87% 29.80 in 3.0 mi SE 4.6 mph - N/A   Overcast
7:32 AM 70.9 °F - 67.1 °F 88% 29.79 in 3.0 mi SE 9.2 mph - N/A Thunderstorm Overcast
7:52 AM 71.2 °F - 67.3 °F 87% 29.80 in 2.5 mi SE 3.5 mph - N/A   Overcast
8:12 AM 71.4 °F - 67.3 °F 87% 29.78 in 2.5 mi SSE 6.9 mph - N/A   Overcast
8:32 AM 71.8 °F - 67.5 °F 86% 29.78 in 3.0 mi SSE 9.2 mph - N/A   Overcast
8:52 AM 72.5 °F - 67.8 °F 85% 29.77 in 3.0 mi SSE 11.5 mph - N/A   Overcast
9:12 AM 72.5 °F - 68.0 °F 86% 29.77 in 3.0 mi South 11.5 mph - N/A   Haze
9:32 AM 73.4 °F - 68.2 °F 84% 29.75 in 3.0 mi SSE 10.4 mph - N/A   Haze
9:52 AM 75.0 °F - 68.5 °F 80% 29.75 in 4.0 mi South 9.2 mph - N/A   Haze
10:12 AM 75.4 °F - 68.5 °F 79% 29.75 in 4.0 mi South 12.7 mph - N/A   Haze
10:31 AM 76.6 °F - 68.9 °F 77% 29.75 in 5.0 mi SSE 6.9 mph - N/A   Haze
10:52 AM 77.5 °F - 69.1 °F 75% 29.74 in 5.0 mi SSE 9.2 mph 16.1 mph N/A   Haze
11:12 AM 79.7 °F - 69.1 °F 70% 29.73 in 7.0 mi SSE 11.5 mph 16.1 mph N/A   Clear
11:31 AM 80.2 °F 83.2 °F 69.3 °F 69% 29.73 in 7.0 mi South 10.4 mph - N/A   Clear
11:52 AM 81.5 °F 84.8 °F 69.3 °F 66% 29.72 in 7.0 mi South 10.4 mph 16.1 mph N/A   Clear
12:12 PM 82.2 °F 86.0 °F 69.6 °F 66% 29.72 in 10.0 mi South 6.9 mph - N/A   Clear
12:32 PM 84.9 °F 89.4 °F 70.0 °F 61% 29.71 in 10.0 mi South 12.7 mph - N/A   Clear
12:52 PM 85.6 °F 90.4 °F 70.2 °F 60% 29.70 in 10.0 mi South 9.2 mph - N/A   Clear
1:12 PM 87.1 °F 91.6 °F 69.8 °F 56% 29.70 in 10.0 mi South 8.1 mph - N/A   Clear
1:32 PM 88.0 °F 92.5 °F 69.4 °F 54% 29.69 in 10.0 mi South 9.2 mph - N/A   Clear
1:52 PM 89.2 °F 94.1 °F 69.3 °F 52% 29.70 in 10.0 mi SSW 10.4 mph 16.1 mph N/A   Clear
2:12 PM 90.3 °F 95.7 °F 69.8 °F 51% 29.69 in 10.0 mi SSW 11.5 mph - N/A   Clear
2:32 PM 89.6 °F 94.7 °F 69.8 °F 52% 29.67 in 10.0 mi South 12.7 mph 19.6 mph N/A   Clear
2:52 PM 90.1 °F 95.3 °F 69.6 °F 51% 29.66 in 10.0 mi South 11.5 mph 18.4 mph N/A   Clear
3:12 PM 91.0 °F 96.6 °F 70.2 °F 50% 29.65 in 10.0 mi South 10.4 mph 20.7 mph N/A   Clear
3:32 PM 91.9 °F 96.9 °F 69.1 °F 47% 29.65 in 10.0 mi South 12.7 mph 23.0 mph N/A   Clear
3:52 PM 92.1 °F 96.7 °F 68.5 °F 46% 29.64 in 10.0 mi South 12.7 mph 23.0 mph N/A   Clear
4:12 PM 93.2 °F 97.7 °F 68.2 °F 44% 29.64 in 10.0 mi South 12.7 mph 18.4 mph N/A   Clear
4:32 PM 93.0 °F 96.9 °F 67.3 °F 43% 29.64 in 10.0 mi SSW 10.4 mph 16.1 mph N/A   Clear
4:52 PM 93.7 °F 98.2 °F 67.8 °F 43% 29.64 in 10.0 mi SSW 9.2 mph 17.3 mph N/A   Clear
5:11 PM 93.6 °F 97.4 °F 67.6 °F 42% 29.64 in 10.0 mi SSW 12.7 mph 17.3 mph N/A   Clear
5:32 PM 93.4 °F 97.0 °F 67.1 °F 42% 29.64 in 10.0 mi SSW 9.2 mph 17.3 mph N/A   Clear
5:52 PM 92.5 °F 96.9 °F 68.0 °F 45% 29.64 in 10.0 mi SSW 10.4 mph - N/A   Clear
6:11 PM 91.9 °F 95.4 °F 67.3 °F 44% 29.65 in 10.0 mi SW 9.2 mph 16.1 mph N/A   Clear
6:32 PM 90.9 °F 92.7 °F 64.8 °F 42% 29.65 in 10.0 mi SW 11.5 mph 18.4 mph N/A   Clear
6:52 PM 89.6 °F 91.1 °F 64.4 °F 43% 29.65 in 10.0 mi SW 10.4 mph - N/A   Clear
7:11 PM 88.5 °F 90.1 °F 64.4 °F 45% 29.66 in 10.0 mi SW 10.4 mph - N/A   Clear
7:32 PM 88.7 °F 90.1 °F 64.4 °F 44% 29.67 in 10.0 mi SW 10.4 mph - N/A   Clear
7:52 PM 87.8 °F 89.7 °F 65.1 °F 47% 29.69 in 10.0 mi WSW 9.2 mph - N/A   Clear
8:11 PM 86.9 °F 88.9 °F 65.7 °F 49% 29.70 in 10.0 mi WSW 6.9 mph - N/A   Clear
8:32 PM 85.3 °F 87.6 °F 66.4 °F 53% 29.70 in 10.0 mi WSW 5.8 mph - N/A   Clear
8:52 PM 82.8 °F 85.3 °F 67.1 °F 59% 29.71 in 10.0 mi SW 5.8 mph - N/A   Clear
9:12 PM 83.1 °F 85.7 °F 66.7 °F 58% 29.72 in 10.0 mi SW 8.1 mph - N/A   Clear
9:32 PM 82.0 °F 84.5 °F 66.9 °F 60% 29.72 in 10.0 mi SW 6.9 mph - N/A   Clear
9:52 PM 84.7 °F 86.8 °F 65.8 °F 53% 29.73 in 10.0 mi West 10.4 mph 17.3 mph N/A   Clear
10:11 PM 83.5 °F 86.2 °F 67.1 °F 58% 29.74 in 10.0 mi West 9.2 mph - N/A   Clear
10:32 PM 82.0 °F 85.1 °F 68.2 °F 63% 29.74 in 10.0 mi West 10.4 mph - N/A   Clear
10:52 PM 81.1 °F 84.2 °F 68.9 °F 66% 29.75 in 10.0 mi West 8.1 mph - N/A   Clear
11:12 PM 79.9 °F - 68.9 °F 69% 29.76 in 10.0 mi WSW 4.6 mph - N/A   Clear
11:32 PM 78.1 °F - 68.7 °F 73% 29.76 in 10.0 mi SW 3.5 mph - N/A   Clear
11:52 PM 77.0 °F - 68.9 °F 76% 29.76 in 10.0 mi SW 4.6 mph - N/A   Clear